Location: Sternwarte ZA, Rosenfeld-Brittheim
(48.2889°N, 8.6789°E)
Time: 08:11:39
(UTC+02:00)

ISS - Pass Details

Date: 17 May 2021
Orbit: 417 x 422 km, 51.6° (Epoch: 18 June)

Event Time Altitude Azimuth Distance (km) Brightness Sun altitude
Rises 03:40:21 0° 290° (WNW) 2,374 -0.1 -15.6°
Reaches altitude 10° 03:42:33 10° 282° (WNW) 1,508 -1.2 -15.4°
Maximum altitude 03:45:41 36° 214° (SW) 688 -3.2 -15.1°
Drops below altitude 10° 03:48:49 10° 146° (SSE) 1,502 -1.2 -14.8°
Sets 03:51:00 0° 138° (SE) 2,364 -0.1 -14.6°
